星链-5984 (STARLINK-5984 )

导读

STARLINK-5984是美国太空探索技术公司(SpaceX)旗下星链星座的卫星,于2023年4月27日发射入轨,隶属于Starlink项目。星链旨在构建全球卫星互联网,该卫星是项目批量发射的组网卫星之一,承担为全球偏远区域等提供低延迟宽带互联网接入服务的任务,属于低轨通信卫星。

Basic Information
目录编号:
56329
目录名称:
STARLINK-5984
国际标识:
2023-058N
轨道中心:
EARTH
卫星名称:
星链-5984
卫星全名:
星链-5984 (STARLINK-5984 )
卫星状态:
在轨 (已飞行1145 天)
发射日期:
2023-04-27 UTC
国别 :
美国 (US)
星等 :
--
Orbit Information
数据来源 国际轨道数据 AOE轨道数据
星历时间 2026-06-14T21:18:43+0800
10小时前
查看轨道信息
2026-06-10T11:00:00+0800
4天前
查看轨道信息
半长轴 6927.693km 6927.664km
偏心率 0.0001524 0.0001274
轨道倾角 97.366° 97.383°
近地点辐角 97.046° 88.377°
升交点赤经 165.825° 161.597°
平近点角 263.094° 36.610°
近地点 548.5km 548.644km
远地点 550.612km 550.41km
周期 95.641分钟 95.640分钟
每日圈数 15.056354 15.056449
Detailed Information
固有亮度:
5
最大亮度:
2.5
卫星平台:
Starlink v1.5
覆盖范围:
全球
运营商:
太空探索技术公司
运营商所在国:
美国
制造商(研发单位):
太空探索技术公司
制造商所在国:
美国
使用方式:
暂无
Satellite Introduction
星链(Starlink)计划是由太空探索技术公司(SpaceX)提出的一个巨型低轨卫星互联网星座项目,计划在2019年至2024年间在太空搭建由约1.2万颗卫星组成的“星链”网络,其中1584颗将部署在地球上空550千米处的近地轨道,并从2020年开始工作。该卫星仍在工作。
2D Orbit Map
3D Orbit Map
Orbit Altitude Analysis Chart
Orbit Inclination Analysis Chart
Orbit Comprehensive Analysis Chart
View Comprehensive Chart